Pellston, MI

5:43 PM EDT on August 20, 2017 (GMT -0400)
Pellston Regional Airport Of Emmet County

Weather History for KPLN - June, 2013

Change the Weather History Date:

Friday, June 14, 2013

  Actual Average Record
Temperature  
Mean Temperature 57 °F -  
Max Temperature 75 °F 77 °F 94 °F (1988)
Min Temperature 41 °F 49 °F 31 °F (1965)
Degree Days  
Heating Degree Days 8    
Growing Degree Days 7 (Base 50)    
Moisture  
Dew Point 38 °F    
Average Humidity 55    
Maximum Humidity 93    
Minimum Humidity 15    
Precipitation  
Precipitation 0.00 in - - ()
Sea Level Pressure  
Sea Level Pressure 30.09 in    
Wind  
Wind Speed 2 mph (North)    
Max Wind Speed 8 mph    
Max Gust Speed -    
Visibility 10 miles    
Events      
Averages and records for this station are not official NWS values.
T = Trace of Precipitation, MM = Missing Value Source: NWS Daily Summary

Daily Weather History Graph

Daily Weather History Graph

Search for Another Location

Airport or City:

Trip Planner

Search our weather history database for the weather conditions in past years. The results will help you decide how hot, cold, wet, or windy it might be!

Date:

Astronomy

Jun. 14, 2013 Rise Set
Actual Time 5:49 AM EDT 9:29 PM EDT
Civil Twilight 5:11 AM EDT 10:07 PM EDT
Nautical Twilight 4:20 AM EDT 10:58 PM EDT
Astronomical Twilight 3:12 AM EDT 12:07 AM EDT
Moon 11:38 AM EDT (6/14) 12:21 AM EDT (6/14)
Length of Visible Light 16h 56m
Length of Day
15h 40m
Waxing Crescent, 30% of the Moon is Illuminated
Jun 14
Waxing Crescent
Jun 16
First Quarter
Jun 23
Full
Jun 30
Last Quarter
Jul 8
New

Hourly Weather History & Observations

Time (EDT) Temp. Windchill Dew Point Humidity Pressure Visibility Wind Dir Wind Speed Gust Speed Precip Events Conditions
12:54 AM 52.0 °F - 46.0 °F 80% 30.06 in 10.0 mi Calm Calm - N/A   Clear
1:54 AM 50.0 °F - 45.0 °F 83% 30.06 in 10.0 mi Calm Calm - N/A   Clear
2:54 AM 46.0 °F - 43.0 °F 89% 30.07 in 10.0 mi Calm Calm - N/A   Clear
3:54 AM 42.1 °F 40.2 °F 39.9 °F 92% 30.09 in 10.0 mi NW 3.5 mph - N/A   Clear
4:54 AM 41.0 °F - 39.0 °F 93% 30.09 in 10.0 mi Calm Calm - N/A   Clear
5:54 AM 41.0 °F 39.0 °F 39.0 °F 93% 30.10 in 10.0 mi WNW 3.5 mph - N/A   Clear
6:54 AM 43.0 °F - 41.0 °F 93% 30.12 in 10.0 mi Calm Calm - N/A   Clear
7:54 AM 54.0 °F - 41.0 °F 62% 30.12 in 10.0 mi NNE 6.9 mph - N/A   Clear
8:54 AM 57.0 °F - 37.9 °F 49% 30.14 in 10.0 mi NE 3.5 mph - N/A   Clear
9:54 AM 60.1 °F - 37.0 °F 42% 30.15 in 10.0 mi North 3.5 mph - N/A   Clear
10:54 AM 62.1 °F - 36.0 °F 38% 30.15 in 10.0 mi Calm Calm - N/A   Clear
11:54 AM 64.9 °F - 37.9 °F 37% 30.14 in 10.0 mi Variable 4.6 mph - N/A   Clear
12:54 PM 68.0 °F - 39.0 °F 35% 30.14 in 10.0 mi East 6.9 mph - N/A   Clear
1:54 PM 71.1 °F - 37.0 °F 29% 30.12 in 10.0 mi ENE 8.1 mph - N/A   Clear
2:54 PM 73.0 °F - 28.9 °F 20% 30.11 in 10.0 mi Variable 3.5 mph - N/A   Clear
3:54 PM 73.9 °F - 23.0 °F 15% 30.09 in 10.0 mi NNE 5.8 mph - N/A   Clear
4:54 PM 73.0 °F - 28.0 °F 19% 30.08 in 10.0 mi Variable 4.6 mph - N/A   Clear
5:54 PM 73.9 °F - 27.0 °F 18% 30.06 in 10.0 mi Variable 5.8 mph - N/A   Clear
6:54 PM 72.0 °F - 39.0 °F 30% 30.06 in 10.0 mi WSW 5.8 mph - N/A   Clear
7:54 PM 69.1 °F - 34.0 °F 27% 30.05 in 10.0 mi WNW 6.9 mph - N/A   Clear
8:54 PM 59.0 °F - 41.0 °F 51% 30.06 in 10.0 mi NW 4.6 mph - N/A   Clear
9:54 PM 53.1 °F - 39.9 °F 61% 30.06 in 10.0 mi Calm Calm - N/A   Clear
10:54 PM 48.0 °F - 42.1 °F 80% 30.08 in 10.0 mi Calm Calm - N/A   Clear
11:54 PM 46.0 °F - 42.1 °F 86% 30.06 in 10.0 mi Calm Calm - N/A   Clear